Location: Amsterdam
(30.7274°N, 84.4357°W)
Time: 05:25:48
(UTC+00:00)

Explorer 11/Cluster Stage 4 - Pass Details

Date: 25 February 2026
Orbit: 463 x 1175 km, 28.8° (Epoch: 13 March)

Event Time Altitude Azimuth Distance (km) Brightness Sun altitude
Rises 18:49:56 0° 274° (W) 3,201 9.9 47.9°
Reaches altitude 10° 18:52:41 10° 269° (W) 2,148 9.2 47.7°
Maximum altitude 18:57:26 47° 195° (SSW) 793 9.6 47.3°
Drops below altitude 10° 19:01:23 10° 121° (ESE) 1,785 8.6 46.9°
Sets 19:03:30 0° 115° (ESE) 2,602 9.3 46.7°
